Fryeburg, ME

2:35 AM EDT on April 30, 2017 (GMT -0400)
Eastern Slopes Regional

Weather History for KIZG - December, 2011

Change the Weather History Date:

Friday, December 16, 2011

  Actual Average Record
Temperature  
Mean Temperature 42 °F -  
Max Temperature 48 °F 34 °F 48 °F (1998)
Min Temperature 35 °F 13 °F 0 °F (2004)
Degree Days  
Heating Degree Days 23    
Moisture  
Dew Point 29 °F    
Average Humidity 62    
Maximum Humidity 90    
Minimum Humidity 49    
Precipitation  
Precipitation 0.00 in - - ()
Sea Level Pressure  
Sea Level Pressure 29.84 in    
Wind  
Wind Speed 8 mph (West)    
Max Wind Speed 17 mph    
Max Gust Speed 31 mph    
Visibility 10 miles    
Events      
Averages and records for this station are not official NWS values.
T = Trace of Precipitation, MM = Missing Value Source: NWS Daily Summary

Daily Weather History Graph

Daily Weather History Graph

Search for Another Location

Airport or City:

Trip Planner

Search our weather history database for the weather conditions in past years. The results will help you decide how hot, cold, wet, or windy it might be!

Date:

Astronomy

Dec. 16, 2011 Rise Set
Actual Time 7:12 AM EST 4:06 PM EST
Civil Twilight 6:39 AM EST 4:39 PM EST
Nautical Twilight 6:02 AM EST 5:16 PM EST
Astronomical Twilight 5:27 AM EST 5:51 PM EST
Moon 10:48 PM EST (12/16) 10:45 AM EST (12/16)
Length of Visible Light 10h 00m
Length of Day
8h 54m
Waning Gibbous, 65% of the Moon is Illuminated
Dec 16
Waning Gibbous
Dec 17
Last Quarter
Dec 24
New
Jan 1
First Quarter
Jan 9
Full

Hourly Weather History & Observations

Time (EST) Temp. Windchill Dew Point Humidity Pressure Visibility Wind Dir Wind Speed Gust Speed Precip Events Conditions
12:54 AM 46.9 °F - 44.1 °F 90% 29.56 in 10.0 mi WSW 4.6 mph - N/A   Clear
1:54 AM 46.9 °F - 44.1 °F 90% 29.53 in 10.0 mi WSW 6.9 mph - N/A   Partly Cloudy
2:54 AM 48.0 °F - 44.1 °F 86% 29.53 in 10.0 mi Variable 6.9 mph - N/A   Clear
5:54 AM 46.9 °F - 36.0 °F 66% 29.60 in 10.0 mi West 6.9 mph - N/A   Mostly Cloudy
7:54 AM 45.0 °F 40.6 °F 32.0 °F 60% 29.67 in 10.0 mi West 8.1 mph 16.1 mph 0.00 in   Mostly Cloudy
8:54 AM 45.0 °F 41.2 °F 34.0 °F 65% 29.73 in 10.0 mi West 6.9 mph - N/A   Mostly Cloudy
9:54 AM 45.0 °F 42.6 °F 32.0 °F 60% 29.76 in 10.0 mi Variable 4.6 mph - N/A   Mostly Cloudy
10:54 AM 45.0 °F 38.9 °F 28.9 °F 53% 29.80 in 10.0 mi NW 12.7 mph 21.9 mph 0.00 in   Partly Cloudy
11:54 AM 45.0 °F 38.2 °F 27.0 °F 49% 29.81 in 10.0 mi West 15.0 mph 31.1 mph N/A   Partly Cloudy
12:54 PM 43.0 °F 36.4 °F 26.1 °F 51% 29.86 in 10.0 mi West 12.7 mph 24.2 mph N/A   Mostly Cloudy
1:54 PM 42.1 °F 35.2 °F 26.1 °F 53% 29.89 in 10.0 mi WNW 12.7 mph 25.3 mph N/A   Overcast
3:54 PM 39.0 °F 31.8 °F 25.0 °F 57% 29.97 in 10.0 mi West 11.5 mph 21.9 mph N/A   Clear
4:54 PM 37.9 °F 30.5 °F 24.1 °F 57% 29.96 in 10.0 mi West 11.5 mph 24.2 mph N/A   Clear
5:54 PM 37.0 °F 28.9 °F 23.0 °F 57% 29.97 in 10.0 mi West 12.7 mph 23.0 mph N/A   Clear
6:54 PM 37.0 °F 27.4 °F 21.9 °F 54% 30.00 in 10.0 mi West 17.3 mph 28.8 mph N/A   Clear
7:54 PM 37.0 °F 28.9 °F 23.0 °F 57% 30.02 in 10.0 mi West 12.7 mph 24.2 mph N/A   Clear
8:54 PM 37.0 °F 30.4 °F 23.0 °F 57% 30.02 in 10.0 mi WNW 9.2 mph - N/A   Mostly Cloudy
9:54 PM 37.0 °F 30.4 °F 23.0 °F 57% 30.02 in 10.0 mi NW 9.2 mph - N/A   Overcast
10:54 PM 36.0 °F 32.1 °F 21.9 °F 57% 30.02 in 10.0 mi West 4.6 mph - N/A   Scattered Clouds
11:54 PM 35.1 °F 32.2 °F 21.9 °F 59% 30.01 in 10.0 mi WSW 3.5 mph - N/A   Clear